Barbara Foss — WYL4318 — position and weather

sailwx.info

Track history (hours):
 
Tides and Currents Weather Stations Pressure Air Temp Water Temp Dewpoint Dewpoint Depression Visibility Wind Speed Wind Dir Waves Ship Positions

Barbara Foss

Owner: Foss International, Inc, SEATTLE, WA. More information available from US FCC via Universal Licensing System and Coast Guard Vessel Documentation Center.

Last reported at 2014-Oct-21 12:33 UTC. Time now 2014-Oct-21 13:33 UTC.
Position N 54°18' W 130°21'.

Length 39 m; draft 5.5 m.

Type: Tow > 200 m length. MMSI: 366932130.

Date/timePositionNaut miles runAvg speedWind from/ knotsBaromVisibWave heightAir tempDewpointWater temp
2014-Oct-21 12:33N 54°18' W 130°21'0 0.0
2014-Oct-21 11:33N 54°18' W 130°21'0 0.0
2014-Oct-21 10:33N 54°18' W 130°21'0 0.0
2014-Oct-21 09:33N 54°18' W 130°21'0 0.0
2014-Oct-21 08:33N 54°18' W 130°21'0 0.0
2014-Oct-21 07:30N 54°18' W 130°21'0 0.0
2014-Oct-21 06:33N 54°18' W 130°21'0 0.4
2014-Oct-21 05:33N 54°18' W 130°21'1 1.2
2014-Oct-21 04:31N 54°19' W 130°19'0 0.0
2014-Oct-21 03:31N 54°19' W 130°19'0 0.0
2014-Oct-21 02:31N 54°19' W 130°19'0 0.0
2014-Oct-21 01:31N 54°19' W 130°19'0 0.0
2014-Oct-21 00:28N 54°19' W 130°19'0 0.0
2014-Oct-20 23:31N 54°19' W 130°19'2 1.6
2014-Oct-20 22:31N 54°18' W 130°21'0 0.0
2014-Oct-20 21:31N 54°18' W 130°21'0 0.0
2014-Oct-20 20:31N 54°18' W 130°21'0 0.0
2014-Oct-20 19:31N 54°18' W 130°21'0 0.0
2014-Oct-20 18:31N 54°18' W 130°21'0 0.0
2014-Oct-20 17:31N 54°18' W 130°21'0 0.0
2014-Oct-20 16:31N 54°18' W 130°21'0 0.0
2014-Oct-20 09:31N 54°18' W 130°21'0 0.0
2014-Oct-20 08:31N 54°18' W 130°21'2 1.7
2014-Oct-20 07:33N 54°17' W 130°22'8 7.7
2014-Oct-20 06:33N 54°15' W 130°35'6 5.9
2014-Oct-20 05:33N 54°16' W 130°45'5 4.8
2014-Oct-20 04:33N 54°19' W 130°52'  
2014-Oct-16 20:00N 55°54' W 132°30'122 5.3 140 / 201002.6 5.4 0.511.1
2014-Oct-15 21:00N 57°30' W 134°48'50 5.9 050 / 20994.1 5.4 0.511.1
2014-Oct-15 12:31N 58°14' W 135°31'8 8.4
2014-Oct-15 11:33N 58°18' W 135°45'9 8.6
2014-Oct-15 10:33N 58°16' W 136°00'8 7.7
2014-Oct-15 09:33N 58°17' W 136°15'66 5.7
2014-Oct-14 22:00N 58°42' W 138°12'   070 / 15996.5 5.4 0.512.2
Track history (hours):
 
Tides and Currents Weather Stations Pressure Air Temp Water Temp Dewpoint Dewpoint Depression Visibility Wind Speed Wind Dir Waves Ship Positions

Barbara Foss

Owner: Foss International, Inc, SEATTLE, WA. More information available from US FCC via Universal Licensing System and Coast Guard Vessel Documentation Center.

Last reported at 2014-Oct-21 12:33 UTC. Time now 2014-Oct-21 13:33 UTC.
Position N 54°18' W 130°21'.

Length 39 m; draft 5.5 m.

Type: Tow > 200 m length. MMSI: 366932130.

Date/timePositionNaut miles runAvg speedWind from/ knotsBaromVisibWave heightAir tempDewpointWater temp
2014-Oct-21 12:33N 54°18' W 130°21'0 0.0
2014-Oct-21 11:33N 54°18' W 130°21'0 0.0
2014-Oct-21 10:33N 54°18' W 130°21'0 0.0
2014-Oct-21 09:33N 54°18' W 130°21'0 0.0
2014-Oct-21 08:33N 54°18' W 130°21'0 0.0
2014-Oct-21 07:30N 54°18' W 130°21'0 0.0
2014-Oct-21 06:33N 54°18' W 130°21'0 0.4
2014-Oct-21 05:33N 54°18' W 130°21'1 1.2
2014-Oct-21 04:31N 54°19' W 130°19'0 0.0
2014-Oct-21 03:31N 54°19' W 130°19'0 0.0
2014-Oct-21 02:31N 54°19' W 130°19'0 0.0
2014-Oct-21 01:31N 54°19' W 130°19'0 0.0
2014-Oct-21 00:28N 54°19' W 130°19'0 0.0
2014-Oct-20 23:31N 54°19' W 130°19'2 1.6
2014-Oct-20 22:31N 54°18' W 130°21'0 0.0
2014-Oct-20 21:31N 54°18' W 130°21'0 0.0
2014-Oct-20 20:31N 54°18' W 130°21'0 0.0
2014-Oct-20 19:31N 54°18' W 130°21'0 0.0
2014-Oct-20 18:31N 54°18' W 130°21'0 0.0
2014-Oct-20 17:31N 54°18' W 130°21'0 0.0
2014-Oct-20 16:31N 54°18' W 130°21'0 0.0
2014-Oct-20 09:31N 54°18' W 130°21'0 0.0
2014-Oct-20 08:31N 54°18' W 130°21'2 1.7
2014-Oct-20 07:33N 54°17' W 130°22'8 7.7
2014-Oct-20 06:33N 54°15' W 130°35'6 5.9
2014-Oct-20 05:33N 54°16' W 130°45'5 4.8
2014-Oct-20 04:33N 54°19' W 130°52'  
2014-Oct-16 20:00N 55°54' W 132°30'122 5.3 140 / 201002.6 5.4 0.511.1
2014-Oct-15 21:00N 57°30' W 134°48'50 5.9 050 / 20994.1 5.4 0.511.1
2014-Oct-15 12:31N 58°14' W 135°31'8 8.4
2014-Oct-15 11:33N 58°18' W 135°45'9 8.6
2014-Oct-15 10:33N 58°16' W 136°00'8 7.7
2014-Oct-15 09:33N 58°17' W 136°15'66 5.7
2014-Oct-14 22:00N 58°42' W 138°12'   070 / 15996.5 5.4 0.512.2

Dump ship's entire track history